Stündliche Wetter Holubkove

Heute, 22 Juni, Dienstag

Zeit Temperatur Niederschläge Wind Luftdruck Luftfeuchtigkeit
00:00 +21°C° 0.1 mm 5 m/S 748 mmHg 61%
01:00 +20°C° 0.1 mm 5 m/S 748 mmHg 63%
02:00 +20°C° 0 mm 4 m/S 747 mmHg 69%
03:00 +20°C° 0.1 mm 4 m/S 747 mmHg 70%
04:00 +19°C° 0.1 mm 4 m/S 748 mmHg 71%
05:00 +19°C° 0.1 mm 4 m/S 748 mmHg 73%
06:00 +21°C° 0 mm 5 m/S 748 mmHg 66%
07:00 +23°C° 0 mm 6 m/S 748 mmHg 60%
08:00 +26°C° 0 mm 6 m/S 748 mmHg 54%
09:00 +27°C° 0 mm 7 m/S 748 mmHg 50%
10:00 +29°C° 0 mm 7 m/S 749 mmHg 46%
11:00 +30°C° 0 mm 7 m/S 749 mmHg 42%
12:00 +32°C° 0 mm 7 m/S 749 mmHg 41%
13:00 +32°C° 0 mm 6 m/S 749 mmHg 41%
14:00 +33°C° 0 mm 6 m/S 749 mmHg 41%
15:00 +32°C° 0 mm 6 m/S 749 mmHg 45%
16:00 +32°C° 0 mm 5 m/S 749 mmHg 49%
17:00 +30°C° 0 mm 4 m/S 749 mmHg 53%
18:00 +29°C° 0 mm 4 m/S 748 mmHg 58%
19:00 +27°C° 0 mm 3 m/S 748 mmHg 63%
20:00 +25°C° 0 mm 3 m/S 748 mmHg 68%
21:00 +25°C° 0 mm 3 m/S 748 mmHg 69%
22:00 +24°C° 0 mm 3 m/S 748 mmHg 70%
23:00 +22°C° 0 mm 3 m/S 748 mmHg 72%

Morgen, 23 Juni, Mittwoch

Zeit Temperatur Niederschläge Wind Luftdruck Luftfeuchtigkeit
00:00 +22°C° 0 mm 3 m/S 748 mmHg 74%
01:00 +21°C° 0 mm 3 m/S 747 mmHg 76%
02:00 +21°C° 0 mm 2 m/S 747 mmHg 78%
03:00 +21°C° 0 mm 2 m/S 748 mmHg 78%
04:00 +21°C° 0 mm 2 m/S 748 mmHg 79%
05:00 +21°C° 0 mm 2 m/S 748 mmHg 79%
06:00 +24°C° 0 mm 2 m/S 749 mmHg 73%
07:00 +25°C° 0 mm 2 m/S 749 mmHg 67%
08:00 +27°C° 0 mm 2 m/S 750 mmHg 60%
09:00 +28°C° 0 mm 2 m/S 750 mmHg 58%
10:00 +30°C° 0 mm 2 m/S 750 mmHg 57%
11:00 +31°C° 0 mm 3 m/S 750 mmHg 55%
12:00 +33°C° 0 mm 3 m/S 750 mmHg 52%
13:00 +33°C° 0 mm 3 m/S 750 mmHg 50%
14:00 +34°C° 0 mm 3 m/S 750 mmHg 47%
15:00 +34°C° 0 mm 3 m/S 750 mmHg 48%
16:00 +34°C° 0 mm 2 m/S 749 mmHg 49%
17:00 +34°C° 0 mm 2 m/S 749 mmHg 50%
18:00 +31°C° 0 mm 2 m/S 749 mmHg 55%
19:00 +29°C° 0 mm 2 m/S 749 mmHg 60%
20:00 +27°C° 0 mm 2 m/S 750 mmHg 66%
21:00 +26°C° 0 mm 2 m/S 749 mmHg 68%
22:00 +26°C° 0 mm 3 m/S 749 mmHg 70%
23:00 +25°C° 0 mm 3 m/S 749 mmHg 72%

übermorgen, 24 Juni, Donnerstag

Zeit Temperatur Niederschläge Wind Luftdruck Luftfeuchtigkeit
00:00 +24°C° 0 mm 3 m/S 749 mmHg 74%
01:00 +24°C° 0 mm 3 m/S 748 mmHg 77%
02:00 +22°C° 0 mm 3 m/S 748 mmHg 79%
03:00 +22°C° 0 mm 3 m/S 748 mmHg 79%
04:00 +22°C° 0 mm 3 m/S 748 mmHg 79%
05:00 +22°C° 0 mm 3 m/S 748 mmHg 79%
06:00 +23°C° 0 mm 4 m/S 748 mmHg 73%
07:00 +26°C° 0 mm 5 m/S 748 mmHg 67%
08:00 +27°C° 0 mm 5 m/S 748 mmHg 62%
09:00 +28°C° 0 mm 5 m/S 749 mmHg 61%
10:00 +30°C° 0 mm 6 m/S 749 mmHg 60%
11:00 +32°C° 0 mm 6 m/S 749 mmHg 59%
12:00 +32°C° 0 mm 6 m/S 749 mmHg 56%
13:00 +33°C° 0 mm 6 m/S 749 mmHg 54%
14:00 +34°C° 0 mm 6 m/S 749 mmHg 51%
15:00 +33°C° 0 mm 5 m/S 749 mmHg 57%
16:00 +30°C° 0 mm 5 m/S 750 mmHg 63%
17:00 +29°C° 0 mm 4 m/S 750 mmHg 69%
18:00 +28°C° 0 mm 4 m/S 750 mmHg 72%
19:00 +27°C° 0 mm 3 m/S 750 mmHg 75%
20:00 +26°C° 0 mm 3 m/S 750 mmHg 78%
21:00 +25°C° 0 mm 2 m/S 750 mmHg 78%
22:00 +24°C° 0 mm 2 m/S 750 mmHg 79%
23:00 +24°C° 0 mm 2 m/S 750 mmHg 79%

25 Juni, Freitag

Zeit Temperatur Niederschläge Wind Luftdruck Luftfeuchtigkeit
00:00 +23°C° 0 mm 2 m/S 749 mmHg 77%
01:00 +23°C° 0 mm 2 m/S 749 mmHg 74%
02:00 +23°C° 0 mm 2 m/S 749 mmHg 72%
03:00 +23°C° 0 mm 2 m/S 749 mmHg 73%
04:00 +23°C° 0 mm 2 m/S 749 mmHg 73%
05:00 +22°C° 0 mm 3 m/S 749 mmHg 74%
06:00 +25°C° 0 mm 3 m/S 749 mmHg 69%
07:00 +27°C° 0 mm 4 m/S 749 mmHg 64%
08:00 +29°C° 0 mm 5 m/S 749 mmHg 59%
09:00 +32°C° 0 mm 5 m/S 749 mmHg 53%
10:00 +33°C° 0 mm 6 m/S 748 mmHg 47%
11:00 +34°C° 0 mm 6 m/S 748 mmHg 41%
12:00 +34°C° 0 mm 6 m/S 748 mmHg 40%
13:00 +35°C° 0 mm 5 m/S 748 mmHg 39%
14:00 +35°C° 0 mm 5 m/S 748 mmHg 37%
15:00 +34°C° 0 mm 4 m/S 748 mmHg 42%
16:00 +34°C° 0 mm 4 m/S 748 mmHg 46%
17:00 +33°C° 0 mm 3 m/S 748 mmHg 50%
18:00 +30°C° 0 mm 3 m/S 748 mmHg 55%
19:00 +28°C° 0 mm 3 m/S 748 mmHg 60%
20:00 +26°C° 0 mm 3 m/S 748 mmHg 65%
21:00 +25°C° 0 mm 2 m/S 748 mmHg 68%
22:00 +24°C° 0 mm 1 m/S 748 mmHg 72%
23:00 +24°C° 0 mm 1 m/S 748 mmHg 75%

26 Juni, Samstag

Zeit Temperatur Niederschläge Wind Luftdruck Luftfeuchtigkeit
00:00 +23°C° 0 mm 1 m/S 748 mmHg 76%
01:00 +23°C° 0 mm 1 m/S 748 mmHg 77%
02:00 +22°C° 0 mm 1 m/S 748 mmHg 78%
03:00 +23°C° 0 mm 1 m/S 748 mmHg 78%
04:00 +23°C° 0 mm 2 m/S 748 mmHg 78%
05:00 +22°C° 0 mm 3 m/S 748 mmHg 78%
06:00 +25°C° 0 mm 3 m/S 748 mmHg 73%
07:00 +26°C° 0 mm 4 m/S 748 mmHg 68%
08:00 +28°C° 0 mm 5 m/S 748 mmHg 63%
09:00 +28°C° 0 mm 4 m/S 748 mmHg 62%
10:00 +29°C° 0 mm 3 m/S 748 mmHg 60%
11:00 +30°C° 0 mm 3 m/S 747 mmHg 58%
12:00 +31°C° 0 mm 2 m/S 747 mmHg 53%
13:00 +33°C° 0 mm 1 m/S 747 mmHg 48%
14:00 +34°C° 0 mm 1 m/S 747 mmHg 44%
15:00 +33°C° 0 mm 1 m/S 747 mmHg 45%
16:00 +33°C° 0 mm 1 m/S 746 mmHg 47%
17:00 +34°C° 0 mm 2 m/S 746 mmHg 49%
18:00 +30°C° 0.2 mm 2 m/S 746 mmHg 60%
19:00 +27°C° 0.2 mm 2 m/S 746 mmHg 72%
20:00 +24°C° 0.2 mm 2 m/S 746 mmHg 84%
21:00 +24°C° 0.7 mm 2 m/S 746 mmHg 87%
22:00 +23°C° 0.7 mm 2 m/S 746 mmHg 90%
23:00 +21°C° 0.7 mm 2 m/S 746 mmHg 93%

27 Juni, Sonntag

Zeit Temperatur Niederschläge Wind Luftdruck Luftfeuchtigkeit
00:00 +21°C° 0 mm 2 m/S 746 mmHg 93%
01:00 +22°C° 0 mm 1 m/S 746 mmHg 93%
02:00 +22°C° 0 mm 1 m/S 746 mmHg 93%
03:00 +22°C° 0 mm 1 m/S 747 mmHg 92%
04:00 +22°C° 0 mm 1 m/S 747 mmHg 90%
05:00 +23°C° 0 mm 1 m/S 747 mmHg 89%
06:00 +24°C° 0 mm 1 m/S 747 mmHg 83%
07:00 +26°C° 0 mm 1 m/S 747 mmHg 76%
08:00 +27°C° 0 mm 1 m/S 747 mmHg 70%
09:00 +29°C° 0 mm 1 m/S 747 mmHg 65%
10:00 +30°C° 0 mm 1 m/S 747 mmHg 60%
11:00 +31°C° 0 mm 2 m/S 747 mmHg 55%
12:00 +32°C° 0.2 mm 2 m/S 747 mmHg 52%
13:00 +32°C° 0.2 mm 2 m/S 747 mmHg 49%
14:00 +34°C° 0.2 mm 2 m/S 747 mmHg 46%
15:00 +32°C° 0 mm 2 m/S 747 mmHg 49%
16:00 +32°C° 0 mm 2 m/S 747 mmHg 52%
17:00 +31°C° 0 mm 2 m/S 747 mmHg 55%
18:00 +29°C° 0.5 mm 2 m/S 747 mmHg 63%
19:00 +27°C° 0.5 mm 2 m/S 747 mmHg 71%
20:00 +25°C° 0.5 mm 2 m/S 747 mmHg 80%
21:00 +25°C° 0.2 mm 2 m/S 747 mmHg 82%
22:00 +24°C° 0.2 mm 2 m/S 747 mmHg 84%
23:00 +23°C° 0.2 mm 2 m/S 747 mmHg 87%
Mehr zeigen

Wir brauchen deine Erlaubnis

Meteoprog und unser Service Anbieter werden persönliche Daten aufbewahren, so wie Cookies, Geräte Bezeichnung oder ähnliche Technologien von deinem Gerät und Prozess, so wie Persönliche Daten Inhalte und Werbungen, genauso wie social Media und den Verkehr zu analysieren.

  • Aufbewahrung und/oder Zugang zu deiner Geräte Informationen.

    Cookies, Geräte Bezeichnung oder andere Informationen, können aufbewahrt oder Zugang zu deinem Gerät erhalten, für den Grund, der oben angegeben wird.

  • Personalisierte Werbung und Inhalte, Messungen, Einblick in das Publikum und Produkt Entwicklung.

    Werbungen und Inhalte können personalisiert werden, basierend auf ein Profil. Mehr Daten können besser personalisierte Werbungen und Inhalte hinzufügen. Werbung und Inhalte können gezeigt und gemessen werden. Einblicke über das Publikum, welche die Werbung gesehen haben und den Inhalt, können abgeleitet werden. So wie Daten können genutzt werden, um es zu verbessern oder die Benutzer Erfahrung zu verbessern das System und die Software.

Wenn du “Ich stimme zu” klickst, erlaubst du uns, die Cookies zu benutzen die Geräte Bezeichnung, den Web oder ähnliche Technologien zu benutzen. Deine Settings, können in deinem Gerät bei deinem Browser geändert werden.

Für den bestimmten Zweck, berechtigten Interessen beruhen darauf, mehr als auf den Inhalt. Du kannst mehr darüber in unseren Privaten und Cookie Politik lesen.